Rexburg, ID

10:24 AM MDT on April 23, 2018 (GMT -0600)
Rexburg-Madison County

Weather History for KRXE - October, 2013

Change the Weather History Date:

Sunday, October 13, 2013

  Actual Average Record
Temperature  
Mean Temperature 44 °F 46 °F  
Max Temperature 48 °F 60 °F 72 °F (2015)
Min Temperature 39 °F 32 °F 19 °F (2002)
Degree Days  
Heating Degree Days 21 19  
Month to date heating degree days 275 221  
Since 1 July heating degree days 422 579  
Cooling Degree Days 0 0  
Month to date cooling degree days 0 0  
Year to date cooling degree days 452 208  
Moisture  
Dew Point 38 °F    
Average Humidity 82    
Maximum Humidity 93    
Minimum Humidity 70    
Precipitation  
Precipitation 0.31 in 0.04 in 0.51 in (2000)
Month to date precipitation 0.55 0.46  
Year to date precipitation 6.99 10.34  
Sea Level Pressure  
Sea Level Pressure 30.00 in    
Wind  
Wind Speed 5 mph (NNE)    
Max Wind Speed 14 mph    
Max Gust Speed 18 mph    
Visibility 9 miles    
Events Rain    
T = Trace of Precipitation, MM = Missing Value Source: NWS Daily Summary

Daily Weather History Graph

Daily Weather History Graph

Search for Another Location

Airport or City:

Astronomy

Oct. 13, 2013 Rise Set
Actual Time 7:39 AM MDT 6:46 PM MDT
Civil Twilight 7:10 AM MDT 7:15 PM MDT
Nautical Twilight 6:37 AM MDT 7:48 PM MDT
Astronomical Twilight 6:03 AM MDT 8:21 PM MDT
Moon 3:49 PM MDT (10/13) 1:43 AM MDT (10/13)
Length of Visible Light 12h 04m
Length of Day
11h 06m
Waxing Gibbous, 70% of the Moon is Illuminated
Oct 13
Waxing Gibbous
Oct 18
Full
Oct 26
Last Quarter
Nov 3
New
Nov 9
First Quarter

Hourly Weather History & Observations

Time (MDT) Temp. Windchill Dew Point Humidity Pressure Visibility Wind Dir Wind Speed Gust Speed Precip Events Conditions
12:53 AM 43.0 °F 39.5 °F 33.1 °F 68% 29.97 in 10.0 mi NNE 5.8 mph - N/A   Scattered Clouds
1:53 AM 42.1 °F 36.6 °F 33.1 °F 70% 29.97 in 10.0 mi ENE 9.2 mph - N/A   Partly Cloudy
2:53 AM 42.1 °F 40.2 °F 37.0 °F 82% 29.96 in 10.0 mi Variable 3.5 mph - 0.01 in Rain Light Rain
3:53 AM 43.0 °F 39.5 °F 37.0 °F 80% 29.96 in 10.0 mi East 5.8 mph - 0.00 in Rain Light Rain
4:53 AM 43.0 °F 39.5 °F 37.0 °F 80% 29.98 in 7.0 mi East 5.8 mph - 0.03 in Rain Light Rain
5:53 AM 41.0 °F 37.1 °F 39.0 °F 93% 29.97 in 9.0 mi NNE 5.8 mph - 0.01 in Rain Light Rain
6:53 AM 39.9 °F 35.8 °F 37.9 °F 93% 29.97 in 7.0 mi NNE 5.8 mph - 0.03 in Rain Light Rain
7:53 AM 39.9 °F 35.1 °F 37.9 °F 93% 29.97 in 7.0 mi NE 6.9 mph - 0.06 in Rain Light Rain
8:02 AM 39.2 °F 32.5 °F 39.2 °F 100% 29.98 in 7.0 mi NE 10.4 mph - 0.01 in Rain Light Rain
8:11 AM 39.2 °F 31.6 °F 37.4 °F 93% 29.98 in 4.0 mi NE 12.7 mph 18.4 mph 0.02 in Rain Light Rain
8:32 AM 39.2 °F 32.0 °F 37.4 °F 93% 29.99 in 4.0 mi NE 11.5 mph - 0.07 in Rain Heavy Rain
8:53 AM 39.0 °F 34.0 °F 37.0 °F 93% 29.99 in 6.0 mi NNE 6.9 mph - 0.13 in Rain Light Rain
9:06 AM 39.2 °F 33.6 °F 37.4 °F 93% 30.00 in 9.0 mi NNE 8.1 mph - 0.01 in Rain Light Rain
9:53 AM 39.0 °F 34.0 °F 37.0 °F 93% 30.01 in 10.0 mi North 6.9 mph - 0.02 in Rain Light Rain
10:53 AM 41.0 °F 37.1 °F 37.9 °F 89% 30.01 in 10.0 mi NNE 5.8 mph - 0.00 in   Overcast
11:53 AM 43.0 °F 41.3 °F 37.9 °F 82% 30.00 in 10.0 mi North 3.5 mph - N/A   Overcast
12:38 PM 44.6 °F - 37.4 °F 76% 29.99 in 10.0 mi Calm Calm - N/A   Overcast
12:53 PM 44.1 °F 42.5 °F 37.9 °F 79% 29.99 in 10.0 mi WNW 3.5 mph - N/A   Overcast
1:24 PM 42.8 °F - 39.2 °F 87% 29.99 in 4.0 mi Calm Calm - 0.02 in Rain Rain
1:53 PM 44.1 °F 42.5 °F 39.9 °F 85% 29.99 in 10.0 mi West 3.5 mph - 0.02 in   Overcast
2:21 PM 44.6 °F - 39.2 °F 81% 29.98 in 10.0 mi Calm Calm - N/A   Overcast
2:53 PM 45.0 °F 42.6 °F 39.9 °F 82% 29.97 in 10.0 mi West 4.6 mph - N/A   Overcast
3:53 PM 46.9 °F - 37.9 °F 71% 29.97 in 10.0 mi SSW 3.5 mph - N/A   Overcast
4:53 PM 46.9 °F - 39.0 °F 74% 29.98 in 10.0 mi WSW 3.5 mph - N/A   Overcast
5:34 PM 46.4 °F 43.5 °F 39.2 °F 76% 30.00 in 10.0 mi SW 5.8 mph - N/A   Overcast
5:53 PM 45.0 °F 41.2 °F 39.9 °F 82% 30.01 in 10.0 mi North 6.9 mph - N/A   Overcast
6:08 PM 44.6 °F 40.7 °F 41.0 °F 87% 30.01 in 10.0 mi North 6.9 mph - 0.00 in Rain Light Rain
6:15 PM 44.6 °F 40.7 °F 41.0 °F 87% 30.01 in 10.0 mi North 6.9 mph - 0.00 in Rain Light Rain
6:24 PM 44.6 °F 40.7 °F 39.2 °F 81% 30.01 in 10.0 mi North 6.9 mph - 0.00 in   Overcast
6:44 PM 42.8 °F 40.1 °F 39.2 °F 87% 30.02 in 10.0 mi North 4.6 mph - 0.00 in   Overcast
6:53 PM 43.0 °F 39.5 °F 39.9 °F 89% 30.03 in 10.0 mi North 5.8 mph - 0.00 in   Overcast
7:53 PM 43.0 °F 38.8 °F 39.0 °F 86% 30.05 in 10.0 mi NNE 6.9 mph - N/A   Overcast
8:21 PM 42.8 °F 40.1 °F 39.2 °F 87% 30.04 in 10.0 mi NE 4.6 mph - N/A   Overcast
8:53 PM 42.1 °F 40.2 °F 37.9 °F 85% 30.06 in 10.0 mi NE 3.5 mph - N/A   Overcast
9:53 PM 42.1 °F 40.2 °F 37.9 °F 85% 30.06 in 10.0 mi North 3.5 mph - N/A   Overcast
10:53 PM 42.1 °F - 37.9 °F 85% 30.08 in 10.0 mi Calm Calm - N/A   Overcast
11:53 PM 42.1 °F 39.2 °F 34.0 °F 73% 30.08 in 10.0 mi North 4.6 mph - N/A   Overcast